This is the latest recevied weather packets stored in our database for station/object KE8WMS. If no packets are shown the sender has not sent any weather packets the latest 10 day(s).
| Time | Temp. | Humidity | Pressure | Rain* | Wind** | Luminosity | Snow |
|---|---|---|---|---|---|---|---|
| 1787617748 | 20° C | 79% | 1011.9 hPa | 0 mm | - | 0 W/m² | - |
| 1787617448 | 20° C | 80% | 1011.8 hPa | 0 mm | - | 0 W/m² | - |
| 1787617142 | 20° C | 80% | 1011.7 hPa | 0 mm | - | 0 W/m² | - |
| 1787616837 | 20° C | 79% | 1011.7 hPa | 0 mm | - | 1 W/m² | - |
| 1787616537 | 20° C | 79% | 1011.7 hPa | 0 mm | - | 1 W/m² | - |
| 1787616235 | 20.56° C | 78% | 1011.6 hPa | 0 mm | - | 2 W/m² | - |
| 1787615934 | 20.56° C | 77% | 1011.6 hPa | 0 mm | - | 3 W/m² | - |
| 1787615629 | 20.56° C | 76% | 1011.6 hPa | 0 mm | - | 4 W/m² | - |
| 1787615324 | 20.56° C | 77% | 1011.5 hPa | 0 mm | - | 4 W/m² | - |
| 1787615020 | 21.11° C | 75% | 1011.8 hPa | 0 mm | - | 5 W/m² | - |
| 1787614716 | 21.11° C | 72% | 1011.8 hPa | 0 mm | - | 7 W/m² | - |
| 1787614413 | 21.11° C | 72% | 1012.1 hPa | 0 mm | - | 8 W/m² | - |
| 1787614110 | 21.11° C | 72% | 1012.1 hPa | 0 mm | - | 9 W/m² | - |
| 1787613806 | 21.11° C | 71% | 1012 hPa | 0 mm | - | 10 W/m² | - |
| 1787613501 | 21.11° C | 71% | 1011.8 hPa | 0 mm | - | 11 W/m² | - |
| 1787613196 | 21.67° C | 70% | 1012 hPa | 0 mm | - | 11 W/m² | - |
| 1787612892 | 21.67° C | 70% | 1012 hPa | 0 mm | - | 13 W/m² | - |
| 1787612588 | 21.67° C | 69% | 1011.9 hPa | 0 mm | - | 21 W/m² | - |
| 1787612284 | 21.67° C | 69% | 1012.3 hPa | 0 mm | - | 32 W/m² | - |
| 1787611981 | 21.67° C | 68% | 1012.2 hPa | 0 mm | - | 47 W/m² | - |
| 1787611676 | 21.67° C | 69% | 1011.8 hPa | 0 mm | - | 49 W/m² | - |
| 1787611373 | 21.67° C | 69% | 1011.8 hPa | 0 mm | - | 46 W/m² | - |
| 1787611072 | 21.67° C | 68% | 1011.8 hPa | 0 mm | - | 52 W/m² | - |
| 1787610769 | 22.22° C | 68% | 1011.4 hPa | 0 mm | - | 48 W/m² | - |
| 1787610464 | 22.22° C | 68% | 1011.5 hPa | 0 mm | - | 55 W/m² | - |
* Rain latest hour (hover to see other rain measurements)
** Current wind speed in m/s (hover to see current wind gust speed)